BLUEBIRD D

Last updated on Fri Sep 13 2024 00:02:05 GMT+0000 (Coordinated Universal Time)

1 61048U 24163D 24256.79109723 -.00000320 00000+0 00000+0 0 9996 2 61048 52.9834 19.9080 0011363 328.2621 199.5027 15.17539218 57
UTC large
Height (km)
Speed (km/s)
/
Latitude / Longitude
Inclination (degrees)
Orbital Period (minutes)
Azimuth
Elevation
Range (km)
Doppler Factor

Next 0 passes for location: London (51.5072 / 0.1276)

Sorry there are no passes over London.